DW9945 Weather Reports


Display with metric or nautical units.
time (UTC)temp
F
wind
direction
speed
MPH
gust
MPH
rain 1hr
in
rain 24hr
in
rain mn
in
humidity
%
barometer
mb
20260904193506 88 322 1.0 3.0 0.00 0.00 0.00 18 1017.5
20260904193007 88 295 2.0 3.0 0.00 0.00 0.00 18 1017.5
20260904192506 88 291 2.0 3.0 0.00 0.00 0.00 18 1017.6
20260904192007 87 291 1.0 3.0 0.00 0.00 0.00 18 1017.5
20260904191507 87 312 1.0 2.0 0.00 0.00 0.00 18 1017.4
20260904191006 88 312 1.0 3.0 0.00 0.00 0.00 18 1017.3
20260904190507 88 292 1.0 3.0 0.00 0.00 0.00 18 1017.1
20260904190008 88 295 2.0 3.0 0.00 0.00 0.00 18 1017.1
20260904185510 89 306 2.0 3.0 0.00 0.00 0.00 18 1017.1
20260904185007 91 301 2.0 3.0 0.00 0.00 0.00 17 1017.1
20260904184506 92 298 2.0 3.0 0.00 0.00 0.00 17 1017.1
20260904183506 93 255 0.0 0.0 0.00 0.00 0.00 17 1017.2
20260904183006 94 255 0.0 0.0 0.00 0.00 0.00 17 1017.1
20260904182507 95 255 1.0 2.0 0.00 0.00 0.00 17 1017.2
20260904182006 95 233 1.0 2.0 0.00 0.00 0.00 17 1017.3
20260904181006 96 191 2.0 3.0 0.00 0.00 0.00 16 1017.2
20260904180510 96 193 2.0 3.0 0.00 0.00 0.00 16 1017.1
20260904180006 96 195 3.0 5.0 0.00 0.00 0.00 16 1017.1
20260904175506 96 208 2.0 3.0 0.00 0.00 0.00 16 1017.1
20260904175006 97 202 1.0 2.0 0.00 0.00 0.00 16 1017.1
20260904174506 97 232 1.0 3.0 0.00 0.00 0.00 16 1017.1
20260904174007 97 233 1.0 3.0 0.00 0.00 0.00 16 1017.2
20260904173506 97 221 2.0 3.0 0.00 0.00 0.00 16 1017.2
20260904173011 97 200 1.0 3.0 0.00 0.00 0.00 16 1017.3
20260904172506 97 225 2.0 3.0 0.00 0.00 0.00 16 1017.2
20260904172006 97 220 2.0 3.0 0.00 0.00 0.00 16 1017.3
20260904171506 97 234 2.0 5.0 0.00 0.00 0.00 15 1017.2
20260904170506 97 209 0.0 3.0 0.00 0.00 0.00 15 1017.1
20260904170006 97 198 2.0 5.0 0.00 0.00 0.00 15 1017.1
20260904164506 98 200 3.0 7.0 0.00 0.00 0.00 15 1017.1
20260904164006 98 180 3.0 5.0 0.00 0.00 0.00 15 1017.1
20260904163505 98 216 3.0 6.0 0.00 0.00 0.00 15 1017.1
20260904163006 98 221 4.0 7.0 0.00 0.00 0.00 15 1017.1
20260904162505 98 228 5.0 7.0 0.00 0.00 0.00 15 1017.1
20260904162005 98 191 5.0 7.0 0.00 0.00 0.00 15 1017.2
20260904161506 98 193 5.0 9.0 0.00 0.00 0.00 15 1017.3
20260904161006 98 183 3.0 7.0 0.00 0.00 0.00 15 1017.2
20260904160506 99 192 3.0 7.0 0.00 0.00 0.00 15 1017.2
20260904160006 99 217 5.0 9.0 0.00 0.00 0.00 15 1017.3
20260904155505 99 220 2.0 7.0 0.00 0.00 0.00 14 1017.3
20260904155005 99 218 3.0 8.0 0.00 0.00 0.00 15 1017.4
20260904154506 99 172 5.0 8.0 0.00 0.00 0.00 15 1017.3
20260904154006 98 190 3.0 8.0 0.00 0.00 0.00 15 1017.3
20260904153006 98 193 4.0 7.0 0.00 0.00 0.00 15 1017.4
20260904152506 98 188 3.0 12.0 0.00 0.00 0.00 15 1017.4
20260904151506 99 232 5.0 8.0 0.00 0.00 0.00 14 1017.5
20260904151006 99 215 2.0 7.0 0.00 0.00 0.00 15 1017.5
20260904150506 99 224 5.0 10.0 0.00 0.00 0.00 14 1017.7
20260904150006 99 207 5.0 7.0 0.00 0.00 0.00 14 1017.6
20260904145506 98 200 4.0 10.0 0.00 0.00 0.00 14 1017.6
20260904145005 98 205 7.0 10.0 0.00 0.00 0.00 14 1017.7
20260904144505 98 217 6.0 13.0 0.00 0.00 0.00 14 1017.8
20260904144006 98 218 6.0 12.0 0.00 0.00 0.00 14 1017.7
20260904143506 98 209 5.0 12.0 0.00 0.00 0.00 14 1017.7
20260904143006 98 229 6.0 12.0 0.00 0.00 0.00 14 1017.7
20260904142505 99 212 3.0 12.0 0.00 0.00 0.00 13 1018.0
20260904142005 99 220 4.0 7.0 0.00 0.00 0.00 13 1018.1
20260904141506 99 185 3.0 9.0 0.00 0.00 0.00 14 1018.1
20260904141006 99 213 5.0 9.0 0.00 0.00 0.00 14 1018.1
20260904140506 99 206 4.0 7.0 0.00 0.00 0.00 14 1018.2
20260904140006 98 178 3.0 12.0 0.00 0.00 0.00 14 1018.4
20260904135505 98 279 0.0 3.0 0.00 0.00 0.00 14 1018.5
20260904135006 98 253 5.0 7.0 0.00 0.00 0.00 14 1018.6
20260904134005 98 242 6.0 12.0 0.00 0.00 0.00 15 1018.7
20260904133505 97 237 3.0 9.0 0.00 0.00 0.00 15 1018.7
20260904133006 97 200 4.0 8.0 0.00 0.00 0.00 15 1018.7
20260904132505 97 225 3.0 8.0 0.00 0.00 0.00 15 1018.7
20260904132005 97 220 4.0 9.0 0.00 0.00 0.00 15 1018.9
20260904131505 97 248 5.0 10.0 0.00 0.00 0.00 15 1019.0
20260904131005 97 197 6.0 12.0 0.00 0.00 0.00 15 1019.0
20260904130505 97 208 6.0 14.0 0.00 0.00 0.00 14 1019.1
20260904130006 96 236 3.0 8.0 0.00 0.00 0.00 15 1019.1
20260904125505 96 213 6.0 12.0 0.00 0.00 0.00 14 1019.3
20260904125005 96 245 5.0 9.0 0.00 0.00 0.00 14 1019.3
20260904124506 96 198 3.0 7.0 0.00 0.00 0.00 15 1019.4
20260904124006 96 209 2.0 8.0 0.00 0.00 0.00 15 1019.4
20260904123006 96 153 3.0 5.0 0.00 0.00 0.00 14 1019.4
20260904122506 95 242 1.0 6.0 0.00 0.00 0.00 14 1019.4
20260904121506 95 235 1.0 6.0 0.00 0.00 0.00 15 1019.6
20260904120505 94 230 4.0 7.0 0.00 0.00 0.00 16 1019.7
20260904115506 94 189 4.0 7.0 0.00 0.00 0.00 16 1019.7
20260904115005 93 186 3.0 8.0 0.00 0.00 0.00 16 1019.8
20260904114505 93 155 3.0 7.0 0.00 0.00 0.00 16 1019.9
20260904114005 93 193 3.0 6.0 0.00 0.00 0.00 16 1019.9
20260904113005 92 193 4.0 6.0 0.00 0.00 0.00 17 1020.1
20260904112506 92 220 4.0 6.0 0.00 0.00 0.00 16 1020.1
20260904112005 92 221 3.0 5.0 0.00 0.00 0.00 16 1020.2
20260904111506 91 187 4.0 7.0 0.00 0.00 0.00 17 1020.1
20260904111005 91 190 3.0 5.0 0.00 0.00 0.00 17 1020.1
20260904110506 91 150 3.0 8.0 0.00 0.00 0.00 17 1020.3
20260904110006 91 136 3.0 6.0 0.00 0.00 0.00 18 1020.4
20260904105505 90 154 2.0 6.0 0.00 0.00 0.00 18 1020.6
20260904105005 90 157 3.0 6.0 0.00 0.00 0.00 18 1020.7
20260904104005 89 162 2.0 3.0 0.00 0.00 0.00 18 1020.7
20260904103505 89 214 3.0 6.0 0.00 0.00 0.00 19 1020.8
20260904103006 89 196 2.0 3.0 0.00 0.00 0.00 19 1020.8
20260904102505 88 242 1.0 3.0 0.00 0.00 0.00 19 1020.8
20260904102006 88 179 1.0 3.0 0.00 0.00 0.00 19 1021.0
20260904101505 87 150 2.0 5.0 0.00 0.00 0.00 19 1020.9
20260904100506 87 161 3.0 6.0 0.00 0.00 0.00 19 1021.0
20260904100008 87 189 2.0 3.0 0.00 0.00 0.00 19 1021.0
20260904095507 86 230 2.0 7.0 0.00 0.00 0.00 20 1021.0
20260904095008 86 207 2.0 3.0 0.00 0.00 0.00 20 1021.0
20260904094507 86 210 1.0 3.0 0.00 0.00 0.00 20 1020.9
20260904094007 86 229 2.0 3.0 0.00 0.00 0.00 20 1020.9
20260904093508 85 68 0.0 3.0 0.00 0.00 0.00 20 1020.9
20260904093007 85 68 0.0 3.0 0.00 0.00 0.00 21 1020.9
20260904092507 84 164 1.0 2.0 0.00 0.00 0.00 22 1020.8
20260904092007 84 117 0.0 0.0 0.00 0.00 0.00 22 1020.8
20260904091508 83 117 0.0 0.0 0.00 0.00 0.00 23 1020.7
20260904091007 83 115 0.0 3.0 0.00 0.00 0.00 22 1020.8
20260904090007 82 284 1.0 2.0 0.00 0.00 0.00 22 1020.8
20260904085507 82 160 0.0 0.0 0.00 0.00 0.00 22 1020.8
20260904085007 81 160 0.0 1.0 0.00 0.00 0.00 24 1020.8
20260904084507 80 157 1.0 2.0 0.00 0.00 0.00 23 1020.8
20260904084007 80 159 1.0 2.0 0.00 0.00 0.00 23 1020.8
20260904083507 80 166 0.0 0.0 0.00 0.00 0.00 25 1020.8
20260904083007 79 184 0.0 1.0 0.00 0.00 0.00 26 1020.8
20260904082507 78 184 0.0 0.0 0.00 0.00 0.00 25 1020.8
20260904082007 78 184 0.0 0.0 0.00 0.00 0.00 25 1020.7
20260904081507 77 184 0.0 0.0 0.00 0.00 0.00 26 1020.7
20260904081007 76 184 0.0 0.0 0.00 0.00 0.00 26 1020.7
20260904080507 75 184 0.0 0.0 0.00 0.00 0.00 27 1020.7
20260904075507 73 184 0.0 0.0 0.00 0.00 0.00 28 1020.7
20260904075007 72 184 0.0 2.0 0.00 0.00 0.00 29 1020.7
20260904074507 71 184 1.0 3.0 0.00 0.00 0.00 29 1020.7
20260904073507 71 195 2.0 3.0 0.00 0.00 0.00 29 1020.7
20260904073007 71 171 1.0 3.0 0.00 0.00 0.00 30 1020.8
20260904072507 70 211 2.0 3.0 0.00 0.00 0.00 30 1020.8
20260904072007 70 185 1.0 3.0 0.00 0.00 0.00 30 1020.7
20260904071507 70 192 3.0 3.0 0.00 0.00 0.00 30 1020.7
20260904071008 69 183 2.0 3.0 0.00 0.00 0.00 30 1020.6
20260904070008 68 225 1.0 2.0 0.00 0.00 0.00 31 1020.6
20260904065007 68 204 0.0 0.0 0.00 0.00 0.00 33 1020.5
20260904064508 67 204 0.0 0.0 0.00 0.00 0.00 32 1020.4
20260904063507 68 204 0.0 0.0 0.00 0.00 0.00 32 1020.4
20260904063007 68 204 0.0 3.0 0.00 0.00 0.00 32 1020.4
20260904062507 68 208 2.0 3.0 0.00 0.00 0.00 32 1020.3
20260904062007 68 157 0.0 0.0 0.00 0.00 0.00 33 1020.2
20260904061507 68 5 0.0 0.0 0.00 0.00 0.00 33 1020.2
20260904061007 68 5 0.0 0.0 0.00 0.00 0.00 31 1020.1
20260904060007 69 5 0.0 0.0 0.00 0.00 0.00 29 1020.1
20260904055507 69 5 0.0 0.0 0.00 0.00 0.00 29 1020.1
20260904055007 69 5 0.0 0.0 0.00 0.00 0.00 28 1020.0
20260904054007 69 5 0.0 0.0 0.00 0.00 0.00 28 1019.9
20260904053507 69 5 0.0 0.0 0.00 0.00 0.00 30 1019.9
20260904053007 69 5 2.0 3.0 0.00 0.00 0.00 30 1019.8
20260904052006 68 44 0.0 3.0 0.00 0.00 0.00 30 1019.7
20260904051507 68 44 1.0 3.0 0.00 0.00 0.00 30 1019.6
20260904051007 68 30 0.0 1.0 0.00 0.00 0.00 30 1019.6
20260904045506 68 30 2.0 5.0 0.00 0.00 0.00 29 1019.5
20260904045007 68 25 3.0 3.0 0.00 0.00 0.00 29 1019.5
20260904044507 67 13 3.0 5.0 0.00 0.00 0.00 29 1019.6
20260904044007 68 68 0.0 0.0 0.00 0.00 0.00 29 1019.7
20260904043507 68 68 0.0 0.0 0.00 0.00 0.00 28 1019.7
20260904043007 69 68 0.0 0.0 0.00 0.00 0.00 28 1019.8
20260904042007 69 68 1.0 2.0 0.00 0.00 0.00 29 1019.8
20260904041007 69 23 2.0 5.0 0.00 0.00 0.00 29 1019.7
20260904040507 68 27 3.0 5.0 0.00 0.00 0.00 29 1019.7
20260904040007 68 22 0.0 3.0 0.00 0.00 0.00 29 1019.7
20260904035506 69 26 1.0 3.0 0.00 0.00 0.00 29 1019.7
20260904035007 69 34 3.0 5.0 0.00 0.00 0.00 28 1019.7
20260904034007 71 27 3.0 5.0 0.00 0.00 0.00 27 1019.7
20260904032507 73 8 3.0 5.0 0.00 0.00 0.00 24 1019.8
20260904031507 72 355 3.0 3.0 0.00 0.00 0.00 25 1019.8
20260904030007 72 16 3.0 3.0 0.00 0.00 0.00 25 1019.8
20260904025506 72 16 0.0 0.0 0.00 0.00 0.00 25 1019.8
20260904025007 72 16 0.0 0.0 0.00 0.00 0.00 25 1019.9
20260904023507 71 49 0.0 0.0 0.00 0.00 0.00 27 1019.8
20260904023007 72 49 0.0 0.0 0.00 0.00 0.00 27 1019.8
20260904022006 73 49 0.0 0.0 0.00 0.00 0.00 27 1019.7
20260904021006 74 49 0.0 0.0 0.00 0.00 0.00 27 1019.7
20260904020507 75 49 0.0 0.0 0.00 0.00 0.00 26 1019.8
20260904020008 75 49 0.0 0.0 0.00 0.00 0.00 25 1019.8
20260904015506 75 49 0.0 0.0 0.00 0.00 0.00 25 1019.9
20260904015006 76 49 0.0 0.0 0.00 0.00 0.00 23 1019.9
20260904014507 76 49 0.0 0.0 0.00 0.00 0.00 24 1019.9
20260904014007 76 49 0.0 0.0 0.00 0.00 0.00 23 1020.0
20260904013507 77 49 0.0 3.0 0.00 0.00 0.00 23 1020.1
20260904013007 76 46 3.0 6.0 0.00 0.00 0.00 23 1020.0
20260904012506 75 31 3.0 5.0 0.00 0.00 0.00 24 1020.0
20260904011506 74 33 2.0 3.0 0.00 0.00 0.00 25 1020.1
20260904011006 74 31 0.0 2.0 0.00 0.00 0.00 25 1020.2
20260904005006 75 33 2.0 5.0 0.00 0.00 0.00 24 1020.3
20260904004507 76 19 3.0 5.0 0.00 0.00 0.00 23 1020.2
20260904003518 75 17 2.0 3.0 0.00 0.00 0.00 24 1020.2
20260904003018 75 17 2.0 3.0 0.00 0.00 0.00 24 1020.3
20260904002017 76 27 2.0 3.0 0.00 0.00 0.00 24 1020.3
20260904001506 76 5 2.0 5.0 0.00 0.00 0.00 23 1020.3
20260904001018 76 352 3.0 5.0 0.00 0.00 0.00 23 1020.3
20260904000518 76 5 2.0 3.0 0.00 0.00 0.00 23 1020.3
20260904000018 76 5 3.0 6.0 0.00 0.00 0.00 23 1020.3
20260903235510 76 0 5.0 6.0 0.00 0.00 0.00 23 1020.3
20260903234017 77 12 2.0 5.0 0.00 0.00 0.00 24 1020.3
20260903233518 77 11 3.0 8.0 0.00 0.00 0.00 23 1020.2
20260903233018 77 12 5.0 7.0 0.00 0.00 0.00 24 1020.2
20260903232519 77 13 4.0 7.0 0.00 0.00 0.00 24 1020.3
20260903232018 76 17 4.0 7.0 0.00 0.00 0.00 24 1020.3
20260903231519 76 18 4.0 7.0 0.00 0.00 0.00 25 1020.3
20260903231017 74 27 4.0 6.0 0.00 0.00 0.00 25 1020.2
20260903230518 74 9 3.0 5.0 0.00 0.00 0.00 26 1020.2
20260903230018 75 13 3.0 5.0 0.00 0.00 0.00 25 1020.1
20260903225507 76 14 3.0 5.0 0.00 0.00 0.00 25 1020.1
20260903225017 78 14 2.0 5.0 0.00 0.00 0.00 24 1020.1
20260903224519 78 35 2.0 3.0 0.00 0.00 0.00 24 1020.0
20260903224018 78 35 0.0 0.0 0.00 0.00 0.00 23 1020.0
20260903223518 78 35 0.0 0.0 0.00 0.00 0.00 23 1020.1
20260903223018 78 35 0.0 0.0 0.00 0.00 0.00 24 1020.0
20260903222518 78 23 0.0 0.0 0.00 0.00 0.00 24 1020.1
20260903221518 79 23 1.0 3.0 0.00 0.00 0.00 23 1019.9
20260903221018 79 23 3.0 3.0 0.00 0.00 0.00 23 1019.8
20260903220519 78 30 3.0 5.0 0.00 0.00 0.00 23 1019.8
20260903220008 78 7 2.0 3.0 0.00 0.00 0.00 24 1019.8
20260903215518 78 7 3.0 5.0 0.00 0.00 0.00 23 1019.7
20260903215018 78 0 5.0 5.0 0.00 0.00 0.00 23 1019.7
20260903214518 78 4 5.0 6.0 0.00 0.00 0.00 24 1019.6
20260903214007 77 348 3.0 5.0 0.00 0.00 0.00 24 1019.6
20260903213518 78 357 3.0 5.0 0.00 0.00 0.00 23 1019.7
20260903213018 79 0 3.0 3.0 0.00 0.00 0.00 23 1019.7
20260903212018 79 4 3.0 5.0 0.00 0.00 0.00 23 1019.7
20260903211518 80 359 5.0 5.0 0.00 0.00 0.00 23 1019.8
20260903210518 80 355 3.0 3.0 0.00 0.00 0.00 22 1019.7
20260903210007 81 13 2.0 3.0 0.00 0.00 0.00 23 1019.7
20260903205518 81 13 3.0 5.0 0.00 0.00 0.00 22 1019.6
20260903205018 81 355 3.0 3.0 0.00 0.00 0.00 22 1019.6
20260903204507 81 9 3.0 5.0 0.00 0.00 0.00 22 1019.6
20260903204018 82 356 3.0 6.0 0.00 0.00 0.00 22 1019.6
20260903203508 82 355 2.0 5.0 0.00 0.00 0.00 21 1019.6
20260903202518 84 17 3.0 5.0 0.00 0.00 0.00 21 1019.4
20260903202018 84 9 3.0 5.0 0.00 0.00 0.00 20 1019.3
20260903201518 85 19 3.0 5.0 0.00 0.00 0.00 21 1019.3
20260903201018 85 31 3.0 5.0 0.00 0.00 0.00 21 1019.3
20260903200507 85 31 3.0 5.0 0.00 0.00 0.00 21 1019.2
20260903195518 86 356 3.0 5.0 0.00 0.00 0.00 21 1018.9
20260903195018 86 17 2.0 5.0 0.00 0.00 0.00 21 1018.8
20260903194518 87 20 5.0 6.0 0.00 0.00 0.00 20 1018.8
20260903194019 87 17 2.0 3.0 0.00 0.00 0.00 20 1018.7